This demonstration page uses our WeatherBlox Daily Observations layout. Learn more.

Left ArrowRight Arrow

44.89941, -97.11507

Hourly Observations for September 28, 2018

Temp ( °F °C ) Dew Point ( °F °C ) Humidity (%) Winds ( mph kmh ) Pressure ( in mb ) Visibility ( mi km ) Precip ( " mm )
12:53 am 00:53 Mostly Cloudy 43 6.1 39 3.9 86 86 NW 6 9 30.12 1020 10 16 0.00 0.00
1:53 am 01:53 Clear 40 4.4 37 2.8 89 89 NW 7 11 30.14 1021 10 16 0.00 0.00
2:53 am 02:53 Clear 40 4.4 36 2.2 86 86 NW 8 13 30.15 1021 10 16 0.00 0.00
3:53 am 03:53 Clear 39 3.9 35 1.7 86 86 NW 8 13 30.17 1022 10 16 0.00 0.00
4:53 am 04:53 Mostly Clear 39 3.9 34 1.1 82 82 NW 6 9 30.19 1022 10 16 0.00 0.00
5:53 am 05:53 Clear 39 3.9 36 2.2 89 89 NW 9 15 30.19 1023 10 16 0.00 0.00
6:53 am 06:53 Clear 37 2.8 35 1.7 93 93 WNW 6 9 30.22 1023 10 16 0.00 0.00
7:53 am 07:53 Sunny 35 1.7 34 1.1 96 96 WSW 7 11 30.24 1024 10 16 0.00 0.00
8:53 am 08:53 Sunny 40 4.4 35 1.7 83 83 NW 13 20 30.25 1025 10 16 0.00 0.00
9:53 am 09:53 Sunny 43 6.1 34 1.1 71 71 NNW 12 19 30.27 1025 10 16 0.00 0.00
10:53 am 10:53 Sunny 46 7.8 32 0 58 58 NNW 14 22 30.28 1025 10 16 0.00 0.00
11:53 am 11:53 Sunny 48 8.9 31 -0.6 52 52 NW 14 22 30.29 1026 10 16 0.00 0.00
12:53 pm 12:53 Sunny 48 8.9 29 -1.7 48 48 W 14 22 30.29 1026 10 16 0.00 0.00
1:53 pm 13:53 Sunny 51 10.6 30 -1.1 44 44 WNW 10 17 30.29 1026 10 16 0.00 0.00
2:53 pm 14:53 Sunny 51 10.6 29 -1.7 43 43 NW 10 17 30.26 1025 10 16 0.00 0.00
3:53 pm 15:53 Mostly Sunny 50 10 28 -2.2 43 43 WNW 14 22 30.26 1025 10 16 0.00 0.00
4:53 pm 16:53 Mostly Sunny 52 11.1 30 -1.1 43 43 WNW 12 19 30.25 1024 10 16 0.00 0.00
5:53 pm 17:53 Sunny 50 10 27 -2.8 41 41 NW 13 20 30.25 1025 10 16 0.00 0.00
6:53 pm 18:53 Sunny 47 8.3 29 -1.7 50 50 NW 8 13 30.26 1025 10 16 0.00 0.00
7:53 pm 19:53 Clear 42 5.6 30 -1.1 62 62 N 3 6 30.28 1025 10 16 0.00 0.00
8:53 pm 20:53 Clear 36 2.2 28 -2.2 73 73 NNE 6 9 30.31 1026 10 16 0.00 0.00
9:53 pm 21:53 Clear 36 2.2 27 -2.8 70 70 NNE 3 6 30.32 1027 10 16 0.00 0.00
10:53 pm 22:53 Clear 35 1.7 25 -3.9 67 67 NE 5 7 30.32 1027 10 16 0.00 0.00
11:53 pm 23:53 Clear 34 1.1 24 -4.4 67 67 ENE 3 6 30.31 1026 10 16 0.00 0.00

Powered by AerisWeather